Location: La Beaumette
(44.1500°N, 6.9000°E)
Time: 06:39:16
(UTC+00:00)

Daily predictions for brighter satellites

Satellite Brightness Start Highest point End
(mag) Time Altitude Azimuth Time Altitude Azimuth Time Altitude Azimuth
IRS-1C Rocket 4.4 17:55:56 10° SE 18:00:53 45° ENE 18:05:53 10° N
Cosmos 1833 Rocket 3.7 17:58:30 10° NW 18:03:54 50° WSW 18:09:18 10° S
H-2A R/B 2.2 18:01:40 10° NNE 18:05:47 48° E 18:09:46 10° S
Okean-O 3.2 18:03:00 10° SE 18:07:04 37° ENE 18:11:10 10° N
Cosmos 1842 3.2 18:04:47 10° N 18:08:44 77° E 18:12:40 10° SSE
Cosmos 2074 Rocket 4.3 18:03:11 10° SSE 18:09:01 44° E 18:14:56 10° NNE
H-2A R/B 3.0 18:05:40 10° S 18:10:30 51° W 18:15:30 10° NNW
ISS -3.3 18:07:17 10° WSW 18:10:37 63° NNW 18:13:59 10° NE
Cosmos 1340 3.0 18:08:28 10° N 18:12:07 44° ENE 18:15:43 10° SSE
Okean 2 3.7 18:08:55 10° N 18:12:51 44° ENE 18:16:44 10° SSE
CZ-4 R/B 1.2 18:09:12 10° SSE 18:13:01 73° ENE 18:16:52 10° N
Cosmos 1626 4.2 18:13:14 10° NE 18:14:22 11° ENE 18:15:12 10° E
CSL-04 Rocket 4.2 18:09:48 10° SE 18:14:42 38° ENE 18:19:40 10° N
Cosmos 921 Rocket 3.4 18:11:06 10° NNW 18:15:23 67° WSW 18:19:35 10° S
SeaSat 1 3.4 18:11:31 10° ESE 18:15:45 30° NE 18:20:03 10° N
Lacrosse 4 Rocket 3.6 18:14:16 10° WSW 18:17:45 27° NW 18:21:15 10° N
Lacrosse 5 rocket 2.9 18:14:39 10° NW 18:18:34 27° NNE 18:22:02 12° E
Feng Yun 1-1 Rocket 4.4 18:15:07 10° S 18:20:30 76° WSW 18:25:55 10° NNW
Cosmos 1975 2.7 18:17:36 10° S 18:21:34 78° E 18:25:33 10° N
Cosmos 2082 Rocket 2.6 18:20:21 10° NNW 18:26:02 70° WSW 18:31:41 10° SSE
Cosmos 836 Rocket 4.5 18:22:25 10° NNW 18:27:43 76° ENE 18:33:00 10° SSE
USA 186 3.0 18:27:21 18° E 18:28:10 20° ENE 18:30:26 10° NNE
Cosmos 1975 Rocket 4.4 18:29:45 10° NNE 18:33:11 22° ENE 18:34:51 18° ESE
Cosmos 2181 Rocket 4.3 18:27:01 10° NNW 18:33:12 74° W 18:39:25 10° S
USA 215 3.3 18:31:02 12° ESE 18:37:10 80° NE 18:43:46 10° NW
Cosmos 1400 Rocket 3.0 18:33:26 10° S 18:37:24 49° E 18:41:21 10° NNE
SJ-6B 3.8 18:35:16 17° ESE 18:37:34 29° ENE 18:41:10 10° N
ARGOS 4.3 18:35:37 10° S 18:40:44 46° W 18:45:54 10° NNW
Okean O Rocket 4.3 18:41:00 10° SW 18:44:24 22° W 18:47:48 10° NW
PSLV R/B 4.1 18:41:45 10° NNE 18:45:50 50° E 18:49:50 10° S
Cosmos 2278 Rocket 4.2 18:41:53 10° WSW 18:46:49 30° NW 18:51:46 10° N
CZ-4B R/B 1.0 18:45:41 10° NNE 18:48:45 88° ESE 18:51:50 10° SSW
Cosmos 1908 Rocket 3.5 18:46:06 10° S 18:50:33 73° E 18:55:02 10° NNE
Cosmos 1943 Rocket 2.1 18:45:34 10° SSW 18:51:05 76° ESE 18:56:43 10° NNE
Cosmos 2369 Rocket 2.7 18:46:37 10° S 18:51:45 37° ESE 18:56:53 10° NE
Cosmos 1238 Rocket 3.9 18:45:57 10° S 18:52:26 76° E 18:58:18 10° NNE
Cosmos 2184 Rocket 4.0 18:46:18 10° S 18:52:39 90° S 18:58:59 10° N
COSMOS 2455 2.8 18:47:03 10° NNW 18:53:08 78° ENE 18:57:53 17° SE
Cosmos 1503 Rocket 3.9 18:49:36 10° SSW 18:54:49 87° ESE 19:00:02 10° NNE
Cosmos 1378 Rocket 4.0 18:50:54 10° NNW 18:55:16 64° W 18:59:39 10° S
Cosmos 2297 3.7 18:49:38 10° SSW 18:55:19 90° ESE 19:01:05 10° NNE
Cosmos 1805 3.8 18:58:13 33° E 18:58:24 33° E 19:01:55 10° NNE
Cosmos 2327 Rocket 4.4 18:55:36 10° S 19:01:44 69° E 19:08:01 10° NNE
YAOGAN 1 4.4 18:59:42 10° SSW 19:03:35 33° W 19:07:31 10° NNW
CSL-04 Debris 4.3 18:58:37 10° S 19:04:01 77° WSW 19:09:27 10° NNW
Cosmos 1295 Rocket 4.4 18:58:48 10° S 19:04:57 70° E 19:11:13 10° NNE
Atlas Centaur 2 4.1 18:58:27 10° SW 19:05:03 25° SSE 19:08:01 21° SE
Cosmos 1610 Rocket 4.4 19:00:43 10° S 19:06:57 78° E 19:13:10 10° N
Cosmos 1777 Rocket 4.1 19:04:00 10° S 19:09:04 51° ESE 19:14:07 10° NNE
Cosmos 1354 Rocket 4.0 19:04:18 10° SSW 19:09:33 84° WNW 19:14:50 10° NNE
Cosmos 2154 Rocket 4.0 19:05:01 10° S 19:11:21 88° E 19:17:45 10° N
Cosmos 1707 4.0 19:07:57 10° NNW 19:11:39 42° W 19:15:20 10° SSW
Cosmos 2263 4.5 19:11:07 10° S 19:16:19 41° ESE 19:21:34 10° NE
SJ 16-02 2.3 19:21:26 32° NE 19:21:26 32° NE 19:24:08 10° NNE
Cosmos 1674 2.7 19:16:59 10° NNW 19:20:42 76° W 19:22:07 36° S
Cosmos 1461 3.5 19:19:02 10° NW 19:22:54 49° WSW 19:24:21 31° S
SL-8 Rocket 4.2 19:23:45 33° SE 19:26:04 46° E 19:32:02 10° NNE
ATLAS CENTAUR R/B 1.7 19:21:23 10° NW 19:26:06 81° WSW 19:27:39 43° SSE
KORONAS-FOTON 4.2 19:23:43 10° NNW 19:27:26 60° W 19:29:03 31° SSW
Nadezhda 3 Rocket 4.1 19:23:13 10° NNW 19:29:21 73° W 19:35:28 10° S
USA 276 3.5 19:26:52 10° WNW 19:29:43 32° NNW 19:29:52 32° N
OBJECT-B 1.7 19:29:06 38° SW 19:29:47 46° W 19:32:51 10° NNW
Cosmos 1346 Rocket 2.7 19:25:53 10° N 19:29:55 88° W 19:30:35 61° S
Cosmos 1339 Rocket 4.5 19:29:04 10° N 19:35:13 59° ENE 19:36:52 45° SE
Cosmos 1656 Rocket 3.6 19:32:23 10° S 19:37:51 59° ESE 19:43:17 10° NNE
Cosmos 1733 3.7 19:41:51 52° N 19:41:51 52° N 19:44:49 10° N
Cosmos 1782 Rocket 4.1 19:37:14 10° SSW 19:41:38 59° W 19:46:02 10° N
Cosmos 773 Rocket 4.4 19:40:03 10° NNW 19:45:13 62° WSW 19:47:21 34° S
ISS -1.7 19:45:07 10° WNW 19:47:52 24° N 19:47:52 24° N
Cosmos 1184 Rocket 4.5 19:45:05 10° NNW 19:46:55 30° NNW 19:46:55 30° NNW
Cosmos 1626 2.8 19:46:18 10° NNW 19:49:43 51° W 19:49:43 51° W
SeaSat 1 3.4 19:51:02 28° SSW 19:53:07 42° WSW 19:57:49 10° NW
CZ-3 Stage 3 4.1 19:36:22 10° WSW 19:56:18 33° S 19:58:05 31° SSE
Cosmos 2341 Rocket 4.0 19:50:32 10° S 19:56:51 84° W 20:03:15 10° N
Lacrosse 5 rocket 1.8 19:53:39 10° NW 19:57:38 65° W 19:57:38 65° W
USA 186 4.4 19:58:52 16° W 19:58:52 16° W 20:00:44 10° NW
BREEZE-M DEB (TANK) 4.1 19:53:41 10° W 19:58:54 38° NNW 19:58:54 38° NNW
Meteor 2-20 Rocket 4.4 19:53:05 10° N 19:59:11 63° E 19:59:18 63° E
Resurs 01 Rocket 2.3 20:00:35 46° N 20:00:35 46° N 20:03:46 10° N
IRS-1A Rocket 4.3 19:58:17 51° S 19:59:51 80° WSW 20:05:47 10° NNW
MOS 1 4.3 19:59:25 50° S 20:00:56 75° WSW 20:06:39 10° NNW
Cosmos 1315 Rocket 4.1 20:04:54 38° NNW 20:04:54 38° NNW 20:07:39 10° N
Helios 1A Rocket 3.8 20:05:27 47° W 20:05:27 47° W 20:09:11 10° NNW
Meteor 1-24 Rocket 3.8 20:01:26 10° N 20:05:57 58° NNE 20:05:57 58° NNE
Cosmos 2366 rocket 3.8 20:06:55 74° SE 20:07:19 78° E 20:13:28 10° N
Ariane Rocket 3.0 20:07:51 72° WSW 20:08:01 72° WSW 20:13:07 10° NNW
Cosmos 1025 Rocket 3.8 20:06:41 10° NNW 20:10:12 50° NW 20:10:12 50° NW
Cosmos 1975 Rocket 4.4 20:07:06 10° NNW 20:11:08 36° W 20:12:01 33° WSW
USA 281 3.0 20:05:16 10° NNE 20:11:52 77° ESE 20:13:39 51° S
Cosmos 2218 Rocket 3.8 20:12:06 74° S 20:12:42 87° E 20:18:56 10° N
Terra 4.2 20:15:18 13° NNE 20:15:18 13° NNE 20:16:04 10° NNE
Cosmos 2297 Rocket 4.3 20:10:52 10° N 20:13:21 15° NE 20:13:21 15° NE
EO 1 Delta rocket 4.5 20:15:37 50° WSW 20:16:00 52° W 20:21:03 10° NNW
Cosmos 1538 Rocket 4.2 20:11:36 10° NNW 20:16:50 67° W 20:16:50 67° W
USA 215 4.5 20:18:24 26° SSW 20:20:35 31° SW 20:26:18 10° WNW
Meteor 2-10 4.4 20:21:57 62° N 20:21:57 62° N 20:26:32 10° N
SPOT 3 Rocket 4.1 20:23:39 54° N 20:23:39 54° N 20:27:36 10° NNW
Cosmos 1833 4.3 20:19:21 10° NNW 20:24:26 70° WNW 20:24:26 70° WNW
Cosmos 2369 Rocket 3.6 20:30:34 10° WSW 20:35:45 36° NW 20:40:58 10° N
Cosmos 2227 Rocket 4.3 20:32:27 10° N 20:34:42 15° NNE 20:34:42 15° NNE
Atlas Centaur 2 4.4 20:46:52 10° WSW 20:50:36 23° SW 20:50:36 23° SW
SJ 16-02 3.8 20:58:13 19° WNW 20:58:43 20° WNW 21:01:59 10° N
Cosmos 2297 Rocket 4.4 21:53:24 10° NNW 21:55:09 21° NNW 21:55:09 21° NNW
CENTAUR R/B 4.4 22:32:34 27° N 22:32:34 27° N 22:36:40 10° NNE
